www.pogodaiklimat.ru

Погода и климат >> Архив погоды >> Франция >> Paris Orly Airport


АРХИВ ПОГОДЫ в Paris Orly Airport

Время (UTC), дата Ветер
(напр.,м/с)
 
Видим.   Явления Облачность Т
(С)
Тd
(С)
f
(%)
Тe
(С)
Тes
(С)
Комфортность P
(гПа)
Po
(гПа)
Тmin
(С)
Tmax
(С)
R
(мм)
R24
(мм)
S
(см)
05 22.04 З 1
{2}
14 км 9/9 1500 м
[Sc]
+8.4 +5.9 84 +8 +8 тепло 1027.9 1016.8
04 22.04 З 1 16 км 9/9 1500 м
[Sc]
+7.2 +4.8 85 +7 +7 тепло 1027.8 1016.6
06 22.04 З 1 14 км 9/9 1500 м
[Sc]
+9.2 +6.1 81 +10 +10 тепло 1028.1 1017.0 +5.8 +16.0
07 22.04 З 1 12 км 10/9 1500 м
[Sc]
+10.5 +6.6 77 +10 +10 тепло 1028.2 1017.2
08 22.04 СЗ 1 11 км 10/9 1500 м
[Sc]
+11.7 +6.6 71 +12 +12 тепло 1028.3 1017.3
09 22.04 С 2 12 км 10/9 1500 м
[Sc]
+12.6 +6.8 68 +12 +13 тепло 1028.1 1017.2
11 22.04 СВ 2 15 км 10/9 900 м
[Cu Sc]
+15.2 +5.4 52 +15 +16 тепло 1027.3 1016.5
10 22.04 С 2 10 км 10/1 750 м
[]
+14.1 +7.4 64 +14 +20 по сезону 1027.9 1017.0
12 22.04 С 2 15 км 9/9 1200 м
[Cu Sc]
+15.0 +5.2 52 +15 +17 по сезону 1026.7 1015.9
13 22.04 СЗ 2 18 км 9/9 1320 м
[Cu Sc]
+14.7 +4.1 49 +15 +16 тепло 1026.4 1015.5
14 22.04 СЗ 2 18 км 9/9 1350 м
[Cu Sc]
+15.8 +4.5 47 +16 +17 тепло 1025.7 1014.9
15 22.04 С 3 25 км 9/9 1380 м
[Cu Sc]
+15.4 +5.3 51 +15 +16 тепло 1025.3 1014.5
17 22.04 СВ 5
{9}
25 км 9/9 750 м
[Cu Sc]
+12.4 +6.4 67 +10 +10 по сезону 1025.7 1014.8
16 22.04 СВ 3 15 км 9/9 1000 м
[Cu Sc]
+13.5 +6.6 63 +12 +13 по сезону 1025.6 1014.7
18 22.04 СВ 2 25 км 9/9 600 м
[Cu Sc]
+11.5 +6.2 70 +10 +10 прохладно 1025.8 1014.8 +9.3 +16.9
19 22.04 СВ 3 25 км 9/9 700 м
[Cu Sc]
+11.0 +5.5 69 +10 +10 тепло 1026.1 1015.1
20 22.04 СВ 2 25 км 9/9 700 м
[Cu Sc]
+11.1 +5.0 66 +10 +10 тепло 1026.6 1015.6
21 22.04 СВ 2 25 км 9/9 1380 м
[Sc]
+10.9 +3.9 62 +10 +10 по сезону 1026.9 1015.9
23 22.04 СВ 2 25 км 1/1 1500 м
[Sc]
+8.2 +3.2 71 +6 +6 тепло 1027.5 1016.4
22 22.04 СВ 3 24 км 4/4 1500 м
[Sc]
+9.5 +3.2 65 +8 +8 тепло 1027.2 1016.1
00 23.04 СВ 2 25 км 1/1 1500 м
[Sc]
+7.8 +2.0 67 +6 +6 по сезону 1027.7 1016.6
01 23.04 СВ 2 30 км ясно +6.5 +1.2 69 +4 +4 тепло 1027.5 1016.3
02 23.04 СВ 1 29 км ясно +5.8 +0.7 70 +5 +5 по сезону 1027.1 1015.9
03 23.04 В 1 30 км ясно +4.3 -0.1 73 +4 +4 по сезону 1027.2 1015.9
05 23.04 СВ 1 19 км 3/0
[]
+3.7 +0.2 78 +2 +2 по сезону 1027.5 1016.2
04 23.04 СВ 2 25 км ясно +3.6 +0.1 78 +1 +1 по сезону 1027.2 1015.9
06 23.04 С 1 25 км 1/0
[]
+6.1 +1.6 73 +6 +7 по сезону 1027.8 1016.6 +3.3 +11.5
07 23.04 СВ 2 25 км 1/0
[]
+7.9 +1.3 63 +6 +9 по сезону 1028.1 1017.0
08 23.04 СВ 3 19 км 4/4 1470 м
[Sc Ci fib]
+9.4 +0.8 55 +8 +11 по сезону 1028.2 1017.1
09 23.04 СВ 3 27 км 3/3 1500 м
[Sc Ci fib]
+10.6 -0.9 45 +9 +15 по сезону 1027.9 1016.9
11 23.04 СВ 2 25 км 5/5 1500 м
[Cu Sc]
+12.0 -0.2 43 +11 +18 по сезону 1027.2 1016.2
10 23.04 СВ 2 40 км 9/9 1500 м
[]
+10.8 -1.0 44 +10 +11 прохладно 1027.6 1016.6
12 23.04 СВ 3 30 км 3/3 1500 м
[Cu hum]
+13.0 +1.0 44 +12 +22 по сезону 1026.4 1015.5
13 23.04 В 3 30 км 6/6 1500 м
[Cu hum]
+13.5 +1.5 44 +13 +18 тепло 1025.8 1014.9
14 23.04 СВ 3 30 км 6/6 1500 м
[Cu hum]
+14.2 +0.8 40 +14 +18 тепло 1025.3 1014.4
15 23.04 СВ 3 30 км 5/5 1500 м
[Cu hum]
+13.5 +0.1 40 +13 +17 по сезону 1024.6 1013.7
17 23.04 СВ 2 27 км 4/4 1500 м
[Sc]
+13.8 -0.3 38 +14 +15 тепло 1023.9 1013.0
16 23.04 СВ 3 30 км 4/4 1500 м
[Sc]
+14.1 +1.0 41 +14 +16 тепло 1024.1 1013.2
18 23.04 СВ 2 30 км 1/1 1500 м
[Sc]
+12.5 +0.2 43 +12 +12 по сезону 1023.6 1012.7 +6.1 +14.5
19 23.04 СВ 2 50 км 1/1 1500 м
[Sc]
+10.6 -0.3 47 +10 +10 тепло 1023.7 1012.7
20 23.04 СВ 3 30 км ясно +10.3 -0.2 48 +9 +9 по сезону 1024.0 1013.0
21 23.04 СВ 2 30 км ясно +8.4 -0.4 54 +7 +7 прохладно 1023.8 1012.7
23 23.04 СВ 1 30 км ясно +7.0 -0.7 58 +6 +6 тепло 1023.1 1012.0
22 23.04 СВ 2 30 км ясно +7.7 -0.5 56 +7 +7 по сезону 1023.4 1012.3
00 24.04 С 1 30 км ясно +6.0 -1.2 60 +5 +5 по сезону 1022.6 1011.4
01 24.04 С 1 30 км ясно +3.4 -2.2 67 +2 +2 по сезону 1022.1 1010.8
02 24.04 С 1 30 км ясно +4.5 -1.1 67 +5 +5 по сезону 1021.3 1010.1
03 24.04 штиль 0 30 км ясно +3.0 -1.7 71 +2 +2 прохладно 1020.9 1009.6
05 24.04 З 1 25 км 4/0
[]
+1.6 -1.5 80 +1 +1 по сезону 1020.1 1008.8
04 24.04 З 1 30 км ясно +2.0 -2.2 74 +2 +2 по сезону 1020.4 1009.1
06 24.04 штиль 0 11 км н/о +5.8 +0.3 68 +5 +5 по сезону 1019.9 1008.8 +1.5 +12.5
07 24.04 С 1 19 км 4/0
[]
+8.7 +0.2 55 +9 +13 тепло 1019.6 1008.6
08 24.04 С 1 25 км 6/0
[]
+10.9 +0.3 48 +12 +17 тепло 1019.2 1008.3
09 24.04 С 1 19 км 6/0
[]
+12.8 +0.5 43 +13 +21 тепло 1018.8 1007.9
11 24.04 С 2 19 км н/о +14.5 -0.8 35 +15 +15 тепло 1017.6 1006.8
10 24.04 С 2 28 км 8/0
[]
+13.9 +0.5 40 +14 +22 по сезону 1018.4 1007.6
12 24.04 ЮЗ 1 18 км 8/0
[]
+15.6 -0.2 34 +17 +29 опасность
простуды
1016.6 1005.9
13 24.04 СВ 1 30 км 9/0
[]
+17.0 +0.2 32 +18 +27 тепло 1015.5 1004.8
14 24.04 СЗ 2 30 км 9/0
[]
+17.1 -0.2 31 +18 +25 тепло 1014.4 1003.8
15 24.04 С 2 30 км 4/0
[]
+17.8 +0.9 32 +19 +26 тепло 1013.7 1003.1
17 24.04 З 3 30 км 6/0
[]
+16.9 +2.1 37 +17 +18 тепло 1012.7 1002.1
16 24.04 З 2 30 км 5/0
[]
+17.6 +0.7 32 +18 +22 тепло 1012.9 1002.3
18 24.04 СЗ 2 40 км 6/1 1500 м
[Sc Ci fib]
+14.8 +2.7 44 +15 +16 тепло 1012.4 1001.7 +5.9 +18.1
19 24.04 СЗ 3 55 км 8/1 1500 м
[Sc Ci fib]
+14.2 +3.3 48 +14 +14 тепло 1012.1 1001.4
20 24.04 СЗ 2 30 км 8/0
[]
+13.2 +3.3 51 +13 +13 тепло 1012.5 1001.7
21 24.04 СЗ 2 30 км 6/0
[]
+11.9 +3.4 56 +12 +12 по сезону 1012.2 1001.4
23 24.04 З 1 45 км 6/1 1500 м
[Sc Ci fib]
+7.3 +1.8 68 +7 +7 тепло 1012.0 1001.0
22 24.04 З 1 60 км 9/0
[]
+10.6 +3.1 60 +11 +11 тепло 1012.2 1001.3
00 25.04 З 2 55 км 9/0
[]
+7.7 +3.2 73 +6 +6 по сезону 1011.5 1000.5
01 25.04 З 1 50 км 9/0
[Ac trans]
+6.9 +2.8 75 +7 +7 тепло 1011.1 1000.1
02 25.04 З 2 30 км 9/0
[Ac trans]
+6.8 +3.4 79 +5 +5 по сезону 1010.9 999.9
03 25.04 СЗ 2 24 км 9/9 540 м
[]
+8.2 +5.3 82 +7 +7 по сезону 1010.7 999.8
05 25.04 С 3 8000 м слабый дождь 9/9 330 м
[Cu Sc]
+7.7 +4.5 80 +5 +5 тепло 1011.6 1000.6
04 25.04 С 2 35 км 9/9 660 м
[]
+9.0 +3.4 68 +7 +7 тепло 1010.9 1000.0
06 25.04 С 3 18 км слабый дождь 10/10 300 м
[Sc]
+5.6 +2.1 78 +3 +3 прохладно 1012.8 1001.7 +5.6 +14.8
07 25.04 С 1 14 км слабый дождь 10/10 630 м
[Sc]
+5.7 +2.2 78 +5 +5 по сезону 1012.9 1001.8 0.2
08 25.04 С 1 50 км в посл. час дождь 10/10 900 м
[Sc]
+6.6 +1.3 69 +6 +6 прохладно 1012.9 1001.9
09 25.04 С 2 40 км {дождь} 10/6 1000 м
[]
+7.4 +0.8 63 +6 +8 прохладно 1013.0 1002.0 0.2
11 25.04 С 2 30 км 10/3 1200 м
[Sc Ac As]
+7.8 -2.0 50 +7 +10 холодно 1013.5 1002.5
10 25.04 С 2 30 км 10/5 1020 м
[Sc Ac As]
+7.7 -1.3 53 +6 +8 очень
холодно
1013.1 1002.1
12 25.04 С 2 40 км {дождь} 10/1 1200 м
[Sc Ac As]
+8.4 -3.5 43 +7 +11 очень
холодно
1013.0 1002.0
13 25.04 С 2 30 км 10/1 1200 м
[Sc Ac As]
+9.2 -4.1 39 +9 +13 прохладно 1012.5 1001.6
14 25.04 СВ 3 30 км 10/1 1500 м
[Sc Ac trans Ci sp]
+9.9 -4.9 35 +9 +13 прохладно 1012.2 1001.3
15 25.04 С 2 30 км 10/0
[Ac trans Ci sp]
+10.3 -4.5 35 +10 +15 прохладно 1011.6 1000.7
17 25.04 С 2 30 км 10/4 1500 м
[Sc Ac trans Ci sp]
+9.6 -4.0 38 +9 +10 по сезону 1011.0 1000.1
16 25.04 СВ 4
{8}
30 км 10/1 1500 м
[Sc Ac trans Ci sp]
+9.8 -4.2 37 +8 +9 прохладно 1011.3 1000.4
18 25.04 СВ 2 60 км 10/5 2000 м
[Sc Ci sp]
+9.2 -4.8 37 +8 +8 холодно 1010.9 1000.0 +5.4 +10.4
19 25.04 С 2 40 км 9/1 2000 м
[Sc Ac trans Ci sp]
+8.7 -5.6 36 +8 +8 по сезону 1011.1 1000.2
20 25.04 С 3 19 км н/о +8.0 -5.1 39 +6 +6 по сезону 1011.4 1000.4
21 25.04 С 3 60 км 8/8
[]
+7.2 -3.7 46 +5 +5 холодно 1011.8 1000.8
23 25.04 С 3 55 км 9/0
[Ac trans]
+6.6 -3.1 50 +4 +4 по сезону 1012.6 1001.6
22 25.04 С 3 55 км 9/9
[]
+6.6 -2.8 51 +4 +4 по сезону 1012.2 1001.2
00 26.04 С 2 30 км 9/0
[Ac trans]
+6.2 -4.6 46 +4 +4 прохладно 1013.1 1002.0
01 26.04 С 2 30 км 9/1 1500 м
[Sc Ac trans]
+5.6 -5.1 46 +4 +4 по сезону 1013.1 1002.0
02 26.04 С 2 60 км 9/3 1500 м
[Sc Ac trans]
+4.5 -4.8 51 +3 +3 по сезону 1013.2 1002.1
03 26.04 С 2 30 км 3/3 1500 м
[Sc]
+4.1 -4.6 53 +2 +2 прохладно 1013.1 1002.0
05 26.04 С 1 30 км 1/1 480 м
[Cu Sc Ci fib]
+1.9 -3.0 70 0 +1 по сезону 1013.6 1002.4
04 26.04 С 2
{7}
30 км 1/1 1500 м
[Sc]
+2.0 -3.5 67 -1 -1 прохладно 1013.2 1002.0
06 26.04 С 1 30 км 1/1 2000 м
[Sc Ci fib]
+4.4 -1.2 67 +3 +4 прохладно 1014.0 1002.9 +1.4 +9.2
07 26.04 СВ 2 30 км 1/1 2000 м
[Sc Ci sp]
+5.8 -0.3 65 +4 +7 по сезону 1014.4 1003.3
08 26.04 С 2 29 км 1/1 800 м
[Cu Sc Ci sp]
+7.3 -0.2 59 +6 +11 прохладно 1014.4 1003.4
09 26.04 С 2 30 км 5/5 930 м
[Cu Sc Ci fib]
+7.3 -1.4 54 +6 +10 прохладно 1014.7 1003.7
11 26.04 СВ 1 30 км н/о +10.3 -1.4 44 +10 +10 прохладно 1014.5 1003.6
10 26.04 С 2 26 км 8/3 1170 м
[]
+8.9 -0.2 53 +8 +13 холодно 1014.7 1003.7
12 26.04 ЮЗ 4
{10}
30 км в посл. час ливневой дождь 5/5 800 м
[Cu Sc]
+10.3 +0.3 50 +8 +14 холодно 1014.6 1003.7 0.0
13 26.04 С 3 45 км 8/8 1000 м
[Cb cap]
+10.9 0.0 47 +9 +12 прохладно 1014.5 1003.6
14 26.04 СВ 2 11 км слабый дождь {ливн. осадки, снег} 9/9 500 м
[]
+5.6 +0.4 69 +3 +5 очень
холодно
1015.6 1004.5 0.4
15 26.04 Ю 1 25 км слабый ливневой дождь {снег} 9/8 1000 м
[Cb cap Ci fib]
+7.2 +0.4 62 +7 +8 холодно 1014.9 1003.9 0.4
17 26.04 ЮЗ 1 50 км слабый ливневой дождь, в посл. час гроза 9/9 1000 м
[Cb cap]
+4.9 +2.4 84 +4 +4 холодно 1015.8 1004.7 2
16 26.04 С 7
{13}
4500 м гроза, ливневой дождь 9/9 330 м
[Cb cap]
+5.6 +1.9 77 +1 +1 очень
холодно
1015.6 1004.5 0.0
18 26.04 З 1 25 км в посл. час ливневой дождь {гроза} 6/6 600 м
[Cb cap]
+4.9 +2.8 86 +4 +4 очень
холодно
1016.0 1004.9 +4.3 +11.2 2
19 26.04 СЗ 1 17 км 8/6 900 м
[Cu Sc Ac trans]
+4.6 +2.6 87 +3 +3 прохладно 1016.4 1005.3
20 26.04 С 2 30 км 5/5 840 м
[Sc diur, vesp]
+5.0 +3.2 88 +3 +3 холодно 1017.0 1005.9
21 26.04 С 2 30 км 5/4 750 м
[Sc Ac trans]
+4.9 +1.2 77 +2 +2 очень
холодно
1017.5 1006.4 2
23 26.04 СЗ 1 30 км 1/1 1300 м
[Sc]
+3.7 +1.1 83 +2 +2 по сезону 1017.9 1006.7
22 26.04 С 1 30 км 3/3 1260 м
[Sc]
+3.0 +0.6 84 +1 +1 прохладно 1017.8 1006.6
00 27.04 СЗ 2 30 км 1/1 1500 м
[Sc]
+3.7 +0.2 78 +2 +2 холодно 1017.9 1006.7
01 27.04 С 1 35 км 3/3 1200 м
[Sc]
+3.7 +0.2 78 +2 +2 по сезону 1017.9 1006.7
02 27.04 С 2 30 км 1/1 1380 м
[Sc]
+3.2 -0.1 79 +1 +1 прохладно 1018.1 1006.9
03 27.04 С 2 30 км ясно +2.4 +0.1 85 -0 -0 холодно 1018.3 1007.0
05 27.04 СЗ 3
{5}
30 км 1/0
[Ci fib]
+1.2 -0.9 86 -3 -3 прохладно 1018.8 1007.5
04 27.04 СЗ 4
{5}
30 км ясно +2.5 +0.1 84 -2 -2 холодно 1018.5 1007.2
06 27.04 С 2 18 км ясно +3.8 +1.0 82 +2 +3 прохладно 1019.1 1007.9 +1.0 +5.2
07 27.04 С 2 18 км 1/1 600 м
[Cu hum]
+5.6 +1.7 76 +4 +7 прохладно 1019.4 1008.3
08 27.04 С 2 25 км 4/4 700 м
[Cu hum]
+7.0 +1.3 67 +6 +10 прохладно 1019.6 1008.5
09 27.04 СЗ 1 28 км 6/6 840 м
[Cu hum]
+7.8 +0.3 59 +7 +12 прохладно 1019.7 1008.6
11 27.04 СЗ 2 45 км 8/8 1200 м
[Cu Sc]
+9.7 -0.8 48 +9 +11 прохладно 1019.0 1008.0
10 27.04 СЗ 2 50 км 9/9 960 м
[Cu Sc]
+8.8 0.0 54 +7 +9 холодно 1019.5 1008.5
12 27.04 В 1 25 км в посл. час ливневой дождь 6/5 600 м
[Cu Sc Ac trans]
+7.6 +0.6 61 +7 +15 очень
холодно
1019.1 1008.0 0.4
13 27.04 С 4 25 км слабый ливневой дождь 9/8 600 м
[Cu Sc Ac trans]
+7.4 +0.8 63 +5 +6 холодно 1019.0 1007.9 0.2
14 27.04 С 3 19 км {ливн. осадки, дождь} 9/3 960 м
[]
+9.1 +1.0 57 +7 +12 холодно 1018.7 1007.7
15 27.04 СЗ 3 35 км {ливн. осадки, дождь} 8/4 900 м
[Cu Sc Ac trans]
+11.4 -1.4 41 +10 +13 прохладно 1018.0 1007.1 0.2
17 27.04 С 3 30 км 8/4 1500 м
[Cu Sc Ac trans]
+10.4 -3.3 38 +9 +10 по сезону 1017.7 1006.8
16 27.04 С 3 40 км н/о +9.9 -2.8 41 +8 +8 прохладно 1017.7 1006.7
18 27.04 С 3 30 км {ливн. осадки, дождь} 6/3 1500 м
[Sc Ac trans Ci fib]
+9.4 -3.5 40 +8 +8 холодно 1017.8 1006.8 +3.9 +11.6
19 27.04 С 2 30 км 6/3 1500 м
[Sc Ac trans Ci fib]
+8.2 -5.0 39 +7 +7 по сезону 1018.1 1007.1
20 27.04 СЗ 1 55 км 4/0
[Ac trans Ci fib]
+7.8 -4.0 43 +8 +8 по сезону 1018.5 1007.5
21 27.04 СЗ 2 30 км 4/0
[Ac trans Ci fib]
+6.8 -3.5 48 +6 +6 прохладно 1018.8 1007.7
23 27.04 З 1 30 км н/о +1.8 -3.1 70 0 0 по сезону 1018.8 1007.5
22 27.04 З 1 30 км 5/0
[Ac As]
+5.0 -2.8 57 +5 +5 по сезону 1018.8 1007.6
00 28.04 З 1 28 км 9/9 2000 м
[]
+1.7 -2.1 76 0 0 очень
холодно
1018.7 1007.4
01 28.04 З 2 30 км 10/10 1260 м
[Sc]
+3.7 -1.1 71 +2 +2 по сезону 1018.3 1007.1
02 28.04 З 2 30 км 10/10 1260 м
[Sc]
+4.5 -0.9 68 +3 +3 по сезону 1017.9 1006.7
03 28.04 З 2 30 км 10/10 1350 м
[Sc]
+4.7 -0.3 70 +3 +3 прохладно 1017.7 1006.5
05 28.04 З 1 12 км слабый дождь 10/10 870 м
[Sc]
+4.4 +1.4 81 +3 +3 по сезону 1017.6 1006.4 0.2
04 28.04 З 2 20 км слабый дождь 10/10 1320 м
[Sc]
+4.8 +0.6 74 +3 +3 по сезону 1017.5 1006.4
06 28.04 ЮЗ 2 15 км в посл. час дождь 10/10 600 м
[Sc]
+4.8 +2.5 85 +2 +2 прохладно 1017.4 1006.3 +1.2 +9.4 0.4
07 28.04 З 2 14 км в посл. час дождь 10/10 600 м
[Sc]
+5.2 +3.2 87 +3 +3 прохладно 1017.4 1006.3 0.6
08 28.04 З 2 10 км в посл. час дождь 10/10 240 м
[Frnb]
+6.4 +4.2 86 +5 +5 прохладно 1017.5 1006.4
09 28.04 З 2 16 км {дождь} 10/10 300 м
[Cu Sc]
+8.4 +5.1 80 +7 +7 прохладно 1017.7 1006.7 0.6
11 28.04 С 1 15 км 9/9 700 м
[]
+11.6 +5.2 65 +12 +14 по сезону 1017.5 1006.6
10 28.04 С 1 20 км 9/9 450 м
[Cu Sc]
+9.4 +5.4 76 +9 +10 холодно 1017.7 1006.7
12 28.04 СЗ 1 19 км {дождь} 8/8 930 м
[Cu Sc]
+13.3 +2.8 49 +14 +17 по сезону 1017.0 1006.2
13 28.04 ЮЗ 2 19 км 8/4 1350 м
[]
+14.4 +3.5 48 +15 +21 тепло 1016.7 1005.9
14 28.04 СЗ 2 30 км слабый ливневой дождь 10/10 1300 м
[Cu Sc]
+10.5 +4.6 67 +10 +10 прохладно 1017.3 1006.4 0.4
15 28.04 З 2 19 км {ливн. осадки, дождь} 9/5 1300 м
[Cu med, cong Ac As]
+11.8 +5.9 67 +11 +13 прохладно 1017.2 1006.3 0.4
17 28.04 СВ 3 35 км 8/3 1080 м
[Cu med, cong Ac As]
+11.1 +4.1 62 +10 +11 по сезону 1017.5 1006.6
16 28.04 З 2 35 км 9/1 1140 м
[]
+13.1 +4.5 56 +13 +16 по сезону 1017.1 1006.3
18 28.04 С 1 28 км {ливн. осадки, дождь} 8/4 1000 м
[Cu Sc Ac trans]
+10.4 +4.7 68 +10 +10 прохладно 1017.6 1006.7 +4.8 +14.7
19 28.04 СЗ 1 20 км 9/6 1200 м
[Cu Sc Ac trans]
+10.0 +5.0 71 +10 +10 тепло 1017.8 1006.9
20 28.04 СЗ 1 19 км 9/6 1200 м
[Cu Sc Ac trans]
+9.5 +5.3 75 +9 +9 по сезону 1018.3 1007.3
21 28.04 СЗ 1 20 км 9/9 1500 м
[Sc]
+9.6 +5.4 75 +10 +10 по сезону 1018.6 1007.6
23 28.04 З 1 9000 м 4/1 1500 м
[Sc Ac trans]
+7.0 +3.4 78 +7 +7 тепло 1018.9 1007.8
22 28.04 штиль 0 20 км 9/9 1500 м
[Sc]
+9.5 +5.1 74 +9 +9 тепло 1018.8 1007.8
00 29.04 З 1-1
{1}
20 км ясно +5.2 +3.2 87 +4 +4 прохладно 1018.8 1007.7
01 29.04 ЮЗ 1 15 км ясно +4.6 +3.3 91 +4 +4 по сезону 1018.8 1007.6
02 29.04 З 1 3500 м ясно +3.8 +2.3 90 +3 +3 по сезону 1018.6 1007.4
03 29.04 штиль 0 400 м туман н/о +3.9 +2.9 93 +3 +3 прохладно 1018.5 1007.3
04 29.04 Ю 1 5000 м местами туман поземный ясно +3.2 +2.2 93 +3 +3 тепло 1018.4 1007.2

 

Местоположение метеостанции Paris Orly Airport (Франция): широта 48.72 долгота 2.38 высота над уровнем моря 90 м.

В архиве по умолчанию представлена погода в Paris Orly Airport за последнюю неделю. Архивные данные за месяц целиком и за предыдущие месяцы, начиная с января 2011 года, Вы можете получить, выбрав интересующий диапазон дат из раскрывающегося списка и нажав кнопку "Ввод!".

Внимание! Время в таблицах - всемирное. Для получения местного времени необходимо прибавить поправку, которая в Paris Orly Airport равна 1 ч.

Смотрите также архив погоды в соседних городах и на ближайших метеорологических станциях:

Погода в Paris (Франция) (12 км)
Погода в Villacoublay (Франция) (14 км)
Погода в Melun (Франция) (25 км)
Погода в Le Bourget (Франция) (28 км)
Погода в Trappes (Франция) (28 км)
Погода в Charles De Gaulle Airport (Франция) (35 км)
Погода в Cormeilles (Франция) (48 км)
Погода в Creil (Франция) (60 км)
Погода в Chartres (Франция) (70 км)
Погода в Beauvais (Франция) (86 км)

Пояснения к столбцам:

Ветер - указаны скорость ветра в м/с - средняя за 10 мин, порывы в срок и между сроками (в фигурных скобках) и направление, откуда дует ветер: С - северный, СВ - северо-восточный, В - восточный, ЮВ - юго-восточный, Ю - южный, ЮЗ - юго-западный, З - западный, СЗ - северо-западный.
Видимость - горизонтальная дальность видимости в метрах или километрах. При видимости от 1 до 10 км при отсутствии осадков обычно наблюдается дымка, при ухудшении видимости до 1 км и менее - туман. В сухую погоду видимость может ухудшаться дымом, пылью или мглою.
Явления - указаны атмосферные явления, наблюдавшиеся в срок или в последний час перед сроком; фигурными скобками обозначены явления, наблюдавшиеся между сроками (за 1-3 часа до срока); квадратными скобками обозначены град или гололедные отложения с указанием их диаметра в мм.
Облачность - указаны через наклонную черту общая и нижняя облачность в баллах и высота нижней границы облаков в метрах; квадратными скобками обозначены формы облаков: Ci - перистые, Cs - перисто-слоистые, Cc - перисто-кучевые, Ac - высококучевые, As - высокослоистые, Sc - слоисто-кучевые, Ns - слоисто-дождевые, Cu - кучевые, Cb - кучево-дождевые. Подробнее классификацию облаков см. в Атласе облаков (PDF).
T - Температура воздуха - температура, измеренная на высоте 2 м над землей.
Td - Температура точки росы - температура, при понижении до которой содержащийся в воздухе водяной пар достигнет насыщения.
f - Относительная влажность воздуха - влажноcть воздуха, измеренная на высоте 2 м над землей.
Te - Эффективная температура - температура, которую ощущает одетый по сезону человек в тени. Характеристика душности погоды. При расчете учитывается влияние влажности воздуха и скорости ветра на теплоощущения человека.
Tes - Эффективная температура на солнце - температура, которую ощущает человек, с поправкой на солнечный нагрев. Характеристика знойности погоды. Зависит от высоты солнца над горизонтом, облачности и скорости ветра. Ночью, в пасмурную погоду, а также при ветре 12 м/с и более поправка равна нулю.
P - Атмосферное давление - приведенное к уровню моря атмосферное давление.
Po - Атмосферное давление - измеренное на уровне метеостанции атмосферное давление.
Tmin - Минимальная температура - минимум температуры воздуха на высоте 2 м над землей.
Tmax - Максимальная температура - максимум температуры воздуха на высоте 2 м над землей.
R - Количество осадков - Количество выпавших осадков за период времени, мм. При наведении курсора мыши на число - период времени, за который выпало указанное количество осадков.
R24 - Количество осадков - Количество выпавших осадков за 24 часа, мм.
S - Снежный покров - Высота снежного покрова, см. При наведении курсора мыши на число - состояние снежного покрова и степень покрытия местности в баллах.